Location: Sternwarte Zollern-Alb
(48.2880°N, 8.6780°E)
Time: 03:04:36
(UTC+01:00)

ISS - Visible Passes

Search period start: 11 December 2025 00:00
Search period end: 21 December 2025 00:00
Orbit: 416 x 420 km, 51.6° (Epoch: 10 December)

Date Brightness Start Highest point End Pass type
(mag) Time Alt. Az. Time Alt. Az. Time Alt. Az.
11 Dec -0.5 07:14:08 10° S 07:16:08 15° SE 07:18:07 10° E visible
13 Dec -1.8 07:13:38 10° SSW 07:16:41 33° SE 07:19:45 10° E visible
14 Dec -1.2 06:26:11 10° SSW 06:28:51 22° SE 06:31:31 10° E visible
15 Dec -0.8 05:39:06 10° S 05:41:01 14° SE 05:42:56 10° ESE visible
15 Dec -3.4 07:13:57 10° WSW 07:17:18 70° SSE 07:20:40 10° ENE visible
16 Dec -2.8 06:26:40 14° SW 06:29:18 47° SSE 06:32:34 10° ENE visible
17 Dec -2.2 05:41:14 31° SSE 05:41:19 32° SE 05:44:22 10° E visible
17 Dec -3.7 07:14:36 10° W 07:17:57 66° NNW 07:21:20 10° ENE visible
18 Dec -0.3 04:55:32 12° E 04:55:32 12° E 04:56:00 10° E visible
18 Dec -3.9 06:28:30 34° WSW 06:29:49 86° NNW 06:33:12 10° ENE visible
19 Dec -2.6 05:42:36 43° E 05:42:36 43° E 05:45:03 10° ENE visible
19 Dec -3.4 07:15:33 12° W 07:18:35 48° N 07:21:53 10° ENE visible
20 Dec -0.3 04:56:35 12° ENE 04:56:35 12° ENE 04:56:50 10° ENE visible
20 Dec -3.6 06:29:31 41° WNW 06:30:21 55° NNW 06:33:40 10° ENE visible
